Home > Weather > Tyler > Past weeks

Flag for USA Past Weather in Tyler, Texas, USA — Yesterday and Last 2 Weeks

Now
78 °F

Passing clouds.


Feels Like: 81 °F
Forecast: 78 / 92 °F
Wind: No wind

Location: Tyler Pounds Field

Current Time: Jun 27, 2016 at 4:38:29 AM

Latest Report: Jun 27, 2016 at 3:53 AM


Visibility: 10 mi

Pressure: 30.06 "Hg

Humidity: 84%

Dew Point: 73 °F

Location of TylerLocation

Past Weather in Tyler — Graph

°F

Tyler Temperature Yesterday

Maximum temperature yesterday: 95 °F (at 4:53 PM)
Minimum temperature yesterday: 79 °F (at 3:53 AM)
Average temperature yesterday: 86 °F

High & Low Weather Summary for the Past Weeks

 TemperatureHumidityPressure
High96 °F (Jun 25, 3:53 PM)94% (Jun 14, 4:00 AM)30.21 "Hg (Jun 14, 4:00 AM)
Low73 °F (Jun 19, 2:53 AM)41% (Jun 19, 5:53 PM)29.79 "Hg (Jun 14, 6:53 PM)
Average84 °F69%30.00 "Hg
* Reported Jun 12 2:53 AM — Jun 27 2:53 AM, Tyler, Weather by CustomWeather, © 2016

Note: Actual official high and low records may vary slightly from our data, if they occured in-between our weather recording intervals... More about our weather records

Advertising

Tyler Weather History for the Previous 24 Hours

Scroll right to see more
 ConditionsComfort  
Time TempWeatherWind HumidityBarometerVisibility
2:53 AM
Mon, Jun 27
77 °FClear.3 mph88%30.04 "Hg10 mi
1:53 AM78 °FClear.3 mph84%30.05 "Hg10 mi
12:53 AM81 °FClear.No wind77%30.07 "Hg10 mi
11:53 PM
Sun, Jun 26
82 °FClear.No wind72%30.09 "Hg10 mi
10:53 PM82 °FClear.No wind72%30.06 "Hg10 mi
9:53 PM84 °FClear.No wind67%30.05 "Hg10 mi
8:53 PM85 °FSunny.5 mph65%30.02 "Hg10 mi
7:53 PM88 °FSunny.5 mph59%30.01 "Hg10 mi
6:53 PM91 °FSunny.8 mph52%30.00 "Hg10 mi
5:53 PM93 °FScattered clouds.12 mph49%30.00 "Hg10 mi
4:53 PM95 °FPassing clouds.10 mph44%30.02 "Hg10 mi
3:53 PM93 °FSunny.10 mph47%30.04 "Hg10 mi
2:53 PM92 °FPassing clouds.7 mph51%30.07 "Hg10 mi
1:53 PM92 °FSunny.8 mph49%30.09 "Hg10 mi
12:53 PM92 °FScattered clouds.9 mph49%30.11 "Hg10 mi
11:53 AM90 °FScattered clouds.N/A56%30.11 "Hg10 mi
11:00 AM89 °FScattered clouds.5 mph59%30.14 "Hg10 mi
9:53 AM87 °FScattered clouds.6 mph63%30.11 "Hg10 mi
8:53 AM84 °FSunny.12 mph72%30.11 "Hg10 mi
7:53 AM82 °FPassing clouds.8 mph77%30.10 "Hg10 mi
6:53 AM79 °FClear.No wind84%30.10 "Hg10 mi
5:53 AM80 °FClear.7 mph81%30.09 "Hg10 mi
4:53 AM79 °FPassing clouds.7 mph84%30.08 "Hg10 mi
Weather by CustomWeather, © 2016

See weather overviewHow to use our weather pages